Location: Shenandoah County Park
(38.9356°N, 78.4524°W)
Time: 14:18:35
(UTC-05:00)

Transit 2A - Pass Details

Date: 22 October 2025
Orbit: 591 x 954 km, 66.7° (Epoch: 07 November)

Event Time Altitude Azimuth Distance (km) Brightness Sun altitude
Rises 19:48:52 0° 257° (WSW) 3,035 10.7 -17.0°
Reaches altitude 10° 19:51:58 10° 280° (W) 2,194 9.6 -17.6°
Maximum altitude 19:55:03 16° 318° (NW) 1,882 8.5 -18.2°
Drops below altitude 10° 19:58:20 10° 356° (N) 2,352 8.6 -18.8°
Sets 20:01:51 0° 17° (NNE) 3,369 9.2 -19.5°
